TimeMST,TemperatureF,Dew PointF,Humidity,Sea Level PressureIn,VisibilityMPH,Wind Direction,Wind SpeedMPH,Gust SpeedMPH,PrecipitationIn,Events,Conditions,WindDirDegrees,DateUTC
12:53 AM,-2.9,-8.0,79,30.33,10.0,NW,12.7,-,N/A,,Clear,310,2013-01-15 07:53:00
1:53 AM,-2.9,-9.0,75,30.32,9.0,WNW,8.1,-,N/A,,Clear,290,2013-01-15 08:53:00
2:53 AM,-5.1,-9.9,80,30.32,9.0,WNW,5.8,-,N/A,,Clear,300,2013-01-15 09:53:00
3:53 AM,-6.0,-11.0,79,30.32,10.0,WNW,5.8,-,N/A,,Clear,290,2013-01-15 10:53:00
5:53 AM,-9.9,-16.1,74,30.39,10.0,WSW,5.8,-,N/A,,Clear,250,2013-01-15 12:53:00
6:53 AM,3.0,-7.1,63,30.35,10.0,West,11.5,-,N/A,,Clear,260,2013-01-15 13:53:00
7:53 AM,6.1,-2.9,67,30.35,10.0,West,11.5,-,N/A,,Clear,270,2013-01-15 14:53:00
8:53 AM,14.0,1.9,59,30.32,10.0,West,12.7,-,N/A,,Clear,270,2013-01-15 15:53:00
9:53 AM,18.0,5.0,57,30.31,10.0,WNW,16.1,-,N/A,,Overcast,290,2013-01-15 16:53:00
10:53 AM,23.0,9.0,55,30.28,10.0,WNW,15.0,-,N/A,,Overcast,290,2013-01-15 17:53:00
11:53 AM,26.1,12.0,55,30.24,10.0,WNW,16.1,-,N/A,,Overcast,300,2013-01-15 18:53:00
12:53 PM,28.0,15.1,58,30.22,10.0,WNW,16.1,21.9,N/A,,Overcast,300,2013-01-15 19:53:00
1:53 PM,30.0,15.1,54,30.19,10.0,NW,18.4,-,N/A,,Mostly Cloudy,310,2013-01-15 20:53:00
2:53 PM,30.9,17.1,57,30.21,10.0,NW,18.4,-,N/A,,Overcast,320,2013-01-15 21:53:00
3:53 PM,28.9,17.1,61,30.22,10.0,NW,12.7,-,N/A,,Mostly Cloudy,310,2013-01-15 22:53:00
4:53 PM,27.0,17.1,66,30.23,10.0,WNW,13.8,-,N/A,,Overcast,300,2013-01-15 23:53:00
5:53 PM,27.0,16.0,63,30.26,10.0,WNW,17.3,-,N/A,,Overcast,300,2013-01-16 00:53:00
6:53 PM,27.0,17.1,66,30.21,10.0,West,13.8,-,N/A,,Overcast,280,2013-01-16 01:53:00
7:53 PM,28.0,17.1,63,30.21,10.0,WNW,17.3,-,N/A,,Overcast,300,2013-01-16 02:53:00
8:53 PM,27.0,17.1,66,30.17,10.0,WNW,17.3,-,N/A,,Overcast,290,2013-01-16 03:53:00
9:53 PM,28.9,18.0,64,30.15,10.0,WNW,18.4,-,N/A,,Mostly Cloudy,300,2013-01-16 04:53:00
10:53 PM,30.0,19.9,66,30.12,10.0,WNW,16.1,-,N/A,,Overcast,290,2013-01-16 05:53:00
11:53 PM,28.9,19.0,67,30.12,10.0,WNW,19.6,-,N/A,,Mostly Cloudy,300,2013-01-16 06:53:00